Погода в Намангане

Погода в Намангане : погода сейчас, прогноз погоды и архив. Всё, что Вы хотите узнать о погоде в Намангане!

Хотите узнать прогноз погоды в Намангане? Тогда Вам сюда: Погода в Намангане

Поиск расширенной информации на нашем сайте:

Другие новости

Новости СМИ2

Главная страница сайта

Новости сайта

02.10.2013

Напоминаем, что на нашем новом сайте вы можете получить высокодетализированные прогнозы погоды по пунктам России, СНГ и мира (включающие важные для авиации метеовеличины, такие как направление и скорость ветра, видимость, явления погоды, количество и форма облачности, нижняя и верхняя граница облачности), а также ознакомиться с разнообразными материалами по авиационной метеорологии и подборкой полезных ссылок на эту тему.

Сайт Метеоцентр.Азия посвящён разработке технологий оптимизации авиаметеорологического обслуживания, включая проектирование и перспективное создание нескольких автоматизированных авиаметеорологических систем:
- система выпуска высокодетальных прогностических карт явлений погоды для нижнего воздушного пространства по России и ближнему зарубежью;
- система верификации прогнозов TAF (выпускаемых синоптиками официальных АМСГ РФ и ближнего зарубежья) и AUTOTAF (выпускаемых сайтом Метеоцентр.Азия) - выявление ошибок, онлайн-сопоставление с фактической погодой METAR, автоматическое внесение коррективов в прогнозы при резком отклонении фактической погоды от прогноза, подсчёт оправдываемости прогнозов по элементам и в целом;
- система обработки, анализа и отображения авиаметеорологической информации для применения провайдерами метеорологической информации.

Рекомендуем: Визитки заказать воронеж сайт визитка недорого в воронеже заказать.

Погода в Намангане - сегодня

Время (UTC), дата Ветер
(°,м/с) 
Видим.   Явления Облачность Т
(°С)
Тd
(°С)
f(%) Тe
(°С)
Pmin
(гПа)
dP
(гПа)
Po
(мм)
O2
(г/м3)
Тmin Tmax R s Состояние
почвы
12 21.01.17 270 (З) 2000 м  дымка  10/4 1500 м средняя 
[Sc diur, vesp|Ac As]
+2.5 -3.4 65 +2  1026.9  -0.5  726  290           
15 21.01.17 320 (СЗ) 2000 м  дымка  10/4 1500 м средняя 
[Sc diur, vesp|Ac As]
+1 -4.3 68 +2  1027.6  0.4  727  292    +4       
18 21.01.17 250 (З) 2000 м  дымка  10/0 средняя 
[Ac As]
+0.4 -3.2 77 -1  1027  -0.6  726  293    +4       
21 21.01.17 тихо ()   2000 м  дымка  10/0 средняя 
[Ac As]
+0.8 -3.5 73 +1  1026.7  -0.2  726  292           
00 22.01.17 170 (Ю) 0500 м  туман  10/0 средняя 
[Ac As]
+0.2 -3.1 78 +1  1027.6  0.6  725  292           
03 22.01.17 310 (СЗ) 2000 м  в посл. час туман  10/10 1000 м 
[Sc]
+0.9 -3.7 71 -1  1027.8  0.4  727  292           
06 22.01.17 260 (З) 4000 м  дымка{туман}  10/10 300 м 
[Sc]
+2 -3.7 66 +3  1027.7  0.1  727  291  -1         
09 22.01.17 тихо ()   4000 м  дымка  9/9 1000 м 
[Sc]
+5.7 -2.7 55 +6  1023.8  -3  725  286           
12 22.01.17 270 (З) 2000 м  дымка  9/5 1500 м средняя 
[Cu Sc|Ac As]
+4 -1.5 67 +3  1022.8  -1.2  724  288           
15 22.01.17 010 (С) 2000 м  дымка  10/10 300 м 
[Sc]
+1.4 -1.8 79 +2  1023.9  0.5  724  290    +6.7       
18 22.01.17 040 (СВ) 1000 м  дымка  10/10 1500 м 
[Sc]
+1.4 -0.5 87 +2  1023.9  724  290    +6.7       
21 22.01.17 340 (С) 2000 м  слаб. дождь{туман}  10/10 1000 м 
[Ns]
+2 +0.4 89 +1  1023.2  -0.5  724  289           
00 23.01.17 270 (З) 2000 м  слаб. дождь{туман}  10/10 600 м 
[Ns]
+1.8 -0.1 87 1024.5  1.2  725  290           
03 23.01.17 070 (В) 0500 м  слаб. снег{туман}  10/10 100 м 
[Ns]
+0.5 -0.3 94 +1  1026.1  1.2  726  292       
06 23.01.17 050 (СВ) 0200 м  снег{дождь}  10/10 100 м 
[Ns]
+0.6 +0.1 96 +1  1026.8  0.7  726  292  +0       
09 23.01.17 050 (СВ) 0500 м  снег{туман}  10/10 100 м 
[Ns]
+0.6 +0.3 98 +1  1026.3  -0.5  726  292           
12 23.01.17 тихо ()   0200 м  слаб. дождь со снегом{туман}  10/10 100 м 
[Ns]
+0.7 +0.4 98 +1  1026.4  0.2  726  292           
18 23.01.17 070 (В) 0200 м  слаб. снег{туман}  10/10 <0100 м 
[Ns]
-0.1 -1.3 92 +1  1028.5  1.6  727  293    +1.2     
21 23.01.17 060 (СВ) 0500 м  местами туман поземный{снег}  10/10 200 м 
[Ns]
+0 -1.2 92 +1  1029.1  0.8  728  293           
00 24.01.17 050 (СВ) 0200 м  слаб. снег{туман}  10/10 50 м 
[Ns]
+0.1 -1 92 +1  1030.5  1.3  729  294           
03 24.01.17 тихо ()   0200 м  туман{снег}  10/10 <0100 м 
[Ns]
+2 -0.9 81 +2  1032.1  1.6  730  292       
06 24.01.17 тихо ()   0200 м  туман{снег}  ?/?  
+0.9 +0.4 96 +1  1034.6  2.5  732  294  -1       
09 24.01.17 200 (Ю) 2000 м  в посл. час туман  10/10 100 м 
[Frnb]
+1 +0.5 96 +2  1035.4  0.8  732  294           
12 24.01.17 тихо ()   2000 м  дымка{туман}  10/10 300 м 
[Ns]
+1.6 +0.8 94 +2  1036.8  1.4  733  294           
15 24.01.17 070 (В) 2000 м  дымка  10/10 300 м 
[Ns]
+1 -0.1 92 1038.8  1.7  735  295    +1.6       
Время (UTC), дата Ветер
(°,м/с) 
Видим.   Явления Облачность Т
(°С)
Тd
(°С)
f(%) Тe
(°С)
Pmin
(гПа)
dP
(гПа)
Po
(мм)
O2
(г/м3)
Тmin Tmax R s Состояние
почвы

Для получения пояснительной информации подведите курсор к названию столбца.

ПОГОДА в Намангане - архив

Всё, что Вы хотите узнать о погоде в Намангане - удобно и подробно!

Выберите нужную дату (начиная с 1 января 2015* года) и нажмите кнопку "Найти".
Будут отображены архивные сводки погоды по пункту Наманган, начиная с указанной даты.


Отображать данные в формате CSV (для использования в таблицах Excel)


Внимание! Наш архив погоды предназначен исключительно для личного некоммерческого использования в познавательных целях. Если Вам необходимы официальные справки о состоянии погоды (для производственных, юридических, коммерческих и т.п. целей), обращайтесь в органы Росгидромета.

*Примечание: данная дата относится к архиву по метеостанциям СССР (Россия, СНГ, Балтия).
Архив по метеостанциям Зарубежной Европы и Азии (кроме Китая) хранится 10 дней, по другим регионам земного шара (Китай, Африка, Америка, Австралия, Океания) - 1 день.

Наманган - район местоположения метеостанции


Название, широта, долгота, высота метеостанции:
Наманган 41°ш. 71.6°д. 474 м над ур. моря [Узбекистан]

Дополнительная информация

В oтличие oт бoльшинства пoгoдных сайтoв мы публикуем пoдрoбную метеoинфoрмацию в детальнoм прoфессиoнальнoм фoрмате.

Характеристики температуры и влажнoсти вoздуха измеряются на высoте 2 м в тени вдали oт зданий и деревьев.
Скoрoсть ветра измеряется на высoте 10 м (на урoвне рoста челoвека скoрoсть ветра ниже в 1.5-2 раза). Если метеoстанция нахoдится в гoрoде или в лесу, тo скoрoсть ветра занижена на 2-4 м/с пo сравнению с oткрытым местoм. Скoрoсть ветра над акватoриями крупных рек и oзёр, а также на вершинах хoлмoв на 2-5 м/с выше, чем в oбычных услoвиях.
Атмoсфернoе давление в разных тoчках местнoсти мoжет значительнo oтличаться oт давления на метеoстанции, в зависимoсти oт услoвий рельефа (при пoдъёме на 10 м давление пoнижается примернo на 1 мм рт.ст.).